Flag for France Weather past 2 weeks in Toulouse, France

Now
81 °F

Passing clouds.


Feels Like: 80 °F
Forecast: 63 / 81 °F
Wind: 9 mph from Northwest

Location: Toulouse / Blagnac

Current Time: Jul 28, 2015 at 8:49:30 PM

Latest Report: Jul 28, 2015 at 8:00 PM


Visibility: N/A

Pressure: 29.92 "Hg

Humidity: 39%

Dew point: 54 °F

Location of ToulouseLocation

Historic Weather in Toulouse — Graph

°F

Toulouse temperature yesterday

Maximum temperature yesterday: 81 °F (at 3:30 PM)
Minimum temperature yesterday: 68 °F (at 4:00 AM)
Average temperature yesterday: 73 °F

Past Weeks' High & Low Weather Summary

 TemperatureHumidityPressure
High97 °F (Jul 16, 2:00 PM)94% (Jul 17, 6:30 AM)30.21 "Hg (Jul 17, 6:30 AM)
Low59 °F (Jul 26, 5:00 AM)19% (Jul 15, 6:00 PM)29.80 "Hg (Jul 24, 3:00 PM)
Average77 °F57%30.02 "Hg
* Reported Jul 13 7:00 PM — Jul 28 7:30 PM, Toulouse, Weather by CustomWeather, © 2015

Note: Actual official high and low records may vary slightly from our data, if they occured in-between our weather recording intervals... More about our weather records

Advertising

Toulouse weather history for previous 24 hours

 ConditionsComfort  
Time TempWeatherWind HumidityBarometerVisibility
7:30 PM
Tue, Jul 28
81 °FPassing clouds.7 mph39%29.92 "HgN/A
7:00 PM82 °FPassing clouds.10 mph37%29.92 "HgN/A
6:30 PM82 °FPassing clouds.9 mph37%29.92 "HgN/A
6:00 PM82 °FPassing clouds.8 mph35%29.92 "HgN/A
5:30 PM82 °FPassing clouds.10 mph35%29.92 "HgN/A
5:00 PM82 °FPassing clouds.6 mph35%29.95 "HgN/A
4:30 PM81 °FPassing clouds.9 mph37%29.95 "HgN/A
4:00 PM81 °FPassing clouds.7 mph39%29.95 "HgN/A
3:30 PM77 °FPartly sunny.9 mph44%29.95 "HgN/A
3:00 PM77 °FPartly sunny.9 mph39%29.98 "HgN/A
2:30 PM77 °FPartly sunny.8 mph42%29.98 "HgN/A
2:00 PM77 °FPartly sunny.9 mph44%29.98 "HgN/A
1:30 PM75 °FBroken clouds.8 mph41%29.98 "HgN/A
1:00 PM75 °FPartly sunny.8 mph44%30.01 "HgN/A
12:30 PM73 °FPartly sunny.8 mph47%30.01 "HgN/A
12:00 PM73 °FBroken clouds.12 mph50%30.04 "HgN/A
11:30 AM72 °FMostly cloudy.10 mph53%30.04 "HgN/A
11:00 AM72 °FMore clouds than sun.9 mph61%30.04 "HgN/A
10:30 AM70 °FBroken clouds.10 mph69%30.04 "HgN/A
10:00 AM70 °FBroken clouds.10 mph69%30.07 "HgN/A
9:30 AM68 °FPassing clouds.10 mph73%30.07 "HgN/A
9:00 AM66 °FScattered clouds.9 mph78%30.07 "HgN/A
8:30 AM64 °FScattered clouds.8 mph83%30.04 "HgN/A
8:00 AM64 °FScattered clouds.7 mph83%30.04 "HgN/A
7:30 AM63 °FPartly cloudy.6 mph88%30.04 "HgN/A
7:00 AM63 °FPassing clouds.6 mph83%30.04 "HgN/A
6:30 AM61 °FPartly cloudy.5 mph88%30.04 "HgN/A
5:30 AM61 °FClear.7 mph88%30.04 "Hg10 mi
4:30 AM63 °FClear.7 mph83%30.04 "Hg10 mi
4:00 AM63 °FClear.7 mph83%30.04 "Hg10 mi
3:30 AM63 °FClear.8 mph77%30.04 "Hg10 mi
3:00 AM64 °FClear.7 mph73%30.04 "Hg10 mi
2:30 AM64 °FClear.9 mph73%30.04 "Hg10 mi
2:00 AM64 °FClear.9 mph73%30.04 "Hg10 mi
1:30 AM66 °FClear.12 mph68%30.04 "Hg10 mi
1:00 AM66 °FClear.12 mph68%30.04 "Hg10 mi
12:30 AM68 °FClear.13 mph64%30.04 "Hg10 mi
12:00 AM68 °FClear.12 mph64%30.04 "Hg10 mi
11:30 PM
Mon, Jul 27
68 °FClear.12 mph64%30.04 "Hg10 mi
11:00 PM70 °FPassing clouds.12 mph57%30.04 "HgN/A
10:30 PM70 °FClear.13 mph57%30.04 "Hg10 mi
10:00 PM72 °FSunny.13 mph53%30.04 "Hg10 mi
9:30 PM72 °FSunny.12 mph50%30.01 "Hg10 mi
9:00 PM73 °FSunny.14 mph44%30.01 "Hg10 mi
8:30 PM75 °FSunny.17 mph41%30.01 "Hg10 mi
8:00 PM77 °FPartly sunny.18 mph36%30.01 "HgN/A
Weather by CustomWeather, © 2015

See weather overviewHow to use our weather pages